User: anonymous   Login
Location: Unspecified
(0.0000°N, 0.0000°E)
Time: 18:53:28
(UTC+00:00)
Language:

NOAA 17 - Orbit

View from above orbital plane
View from above orbital plane
View from above satellite
View from above satellite

Ground track
Ground track

The orbit data is extracted from the following two-line orbital elements,

1 27453U 02032A   18174.91297624 -.00000014 +00000-0 +12083-4 0  9993
2 27453 098.4869 131.1209 0011431 186.7134 173.3894 14.25015188831691
Epoch (UTC): 23 June 2018 21:54:41
Eccentricity: 0.0011431
inclination: 98.4869°
perigee height: 800 km
apogee height: 816 km
right ascension of ascending node: 131.1209°
argument of perigee: 186.7134°
revolutions per day: 14.25015188
mean anomaly at epoch: 173.3894°
orbit number at epoch: 83169

The dashed part of the orbit path shows where the satellite is in the earth's shadow,  

DLR